Location: Coche
(10.4506°N, 66.9257°W)
Time: 05:33:08
(UTC+00:00)

YAOGAN 1 - Pass Details

Date: 12 July 2022
Orbit: 617 x 619 km, 97.9° (Epoch: 12 August)

Event Time Altitude Azimuth Distance (km) Brightness Sun altitude
Rises 23:17:24 0° 156° (SSE) 2,884 5.5 -6.1°
Reaches altitude 10° 23:19:40 10° 149° (SSE) 1,978 4.7 -6.6°
Maximum altitude 23:23:45 43° 77° (ENE) 864 3.0 -7.5°
Drops below altitude 10° 23:27:50 10° 6° (N) 1,977 5.4 -8.5°
Sets 23:30:05 0° 359° (N) 2,882 6.3 -9.0°
